Flag for Chad Weather past 2 weeks in Ndjamena, Chad

Now
90 °F

Passing clouds.


Feels Like: 96 °F
Forecast: 74 / 95 °F
Wind: 9 mph from South

Location: Ndjamena

Current Time: Sep 19, 2014 at 2:52:09 PM

Latest Report: Sep 19, 2014 at 2:00 PM


Visibility: N/A

Pressure: 29.86 "Hg

Humidity: 55%

Dew point: 72 °F

Location of NdjamenaLocation

Historic Weather in Ndjamena — Graph

°F

Ndjamena temperature yesterday

Maximum temperature yesterday: 99 °F (at 4:00 PM)
Minimum temperature yesterday: 75 °F (at 1:00 AM)
Average temperature yesterday: 85 °F

Past Weeks' High & Low Weather Summary

 TemperatureHumidityPressure
High99 °F (Sep 18, 4:00 PM)100% (Sep 7, 7:00 AM)30.01 "Hg (Sep 7, 7:00 AM)
Low70 °F (Sep 7, 6:00 AM)37% (Sep 18, 4:00 PM)29.71 "Hg (Sep 11, 5:00 PM)
Average81 °F74%29.87 "Hg
* Reported Sep 4 1:00 PM — Sep 19 1:00 PM, Ndjamena, Weather by CustomWeather, © 2014

Note: Actual official high and low records may vary slightly from our data, if they occured in-between our weather recording intervals... More about our weather records

Advertising

Ndjamena weather history for previous 24 hours

 ConditionsComfort  
Time TempWeatherWind HumidityBarometerVisibility
1:00 PM
Sep 19
91 °FPassing clouds.8 mph56%29.86 "HgN/A
12:00 PM90 °FPassing clouds.8 mph55%29.89 "HgN/A
11:00 AM88 °FPassing clouds.10 mph70%29.92 "HgN/A
10:00 AM86 °FPassing clouds.12 mph70%29.92 "HgN/A
9:00 AM82 °FSunny.9 mph74%29.92 "Hg10 mi
8:00 AM79 °FSunny.9 mph84%29.95 "Hg10 mi
7:00 AM77 °FSunny.8 mph83%29.92 "Hg10 mi
6:00 AM77 °FPassing clouds.9 mph61%29.89 "HgN/A
5:00 AM77 °FPassing clouds.7 mph61%29.89 "HgN/A
4:00 AM79 °FPassing clouds.8 mph61%29.86 "HgN/A
3:00 AM79 °FClear.7 mph61%29.83 "Hg10 mi
2:00 AM81 °FClear.6 mph58%29.83 "Hg10 mi
1:00 AM81 °FClear.6 mph62%29.80 "Hg10 mi
12:00 AM81 °FClear.7 mph70%29.83 "Hg10 mi
11:00 PM
Sep 18
82 °FClear.6 mph66%29.83 "Hg10 mi
10:00 PM82 °FClear.5 mph66%29.83 "Hg10 mi
9:00 PM84 °FPassing clouds.5 mph43%29.83 "HgN/A
8:00 PM84 °FClear.3 mph45%29.80 "Hg10 mi
7:00 PM88 °FPassing clouds.3 mph43%29.77 "HgN/A
6:00 PM91 °FPassing clouds.2 mph44%29.77 "HgN/A
5:00 PM97 °FPassing clouds.3 mph39%29.77 "HgN/A
4:00 PM99 °FPassing clouds.2 mph37%29.77 "HgN/A
2:00 PM97 °FPassing clouds.5 mph47%29.83 "HgN/A
Weather by CustomWeather, © 2014

See weather overviewHow to use our weather pages